This demonstration page uses our WeatherBlox Daily Observations layout. Learn more.

Left ArrowRight Arrow

39.08367, -84.50855

Hourly Observations for December 5, 2020

Temp ( °F °C ) Dew Point ( °F °C ) Humidity (%) Winds ( mph kmh ) Pressure ( in mb ) Visibility ( mi km ) Precip ( " mm )
12:53 am 00:53 Partly Cloudy 37 2.8 32 0 82 82 WSW 6 9 30.01 1016 10 16.0934 0 0
1:53 am 01:53 Clear 38 3.3 32 0 79 79 W 9 15 30.02 1017 10 16.0934 0 0
2:53 am 02:53 Clear 37 2.8 32 0 82 82 W 8 13 30.03 1017 10 16.0934 0 0
3:53 am 03:53 Clear 33 0.6 30 -1.1 89 89 SE 3 6 30.04 1017 9 14.48406 0 0
4:53 am 04:53 Clear 34 1.1 31 -0.6 89 89 Calm 30.06 1018 9 14.48406 0 0
5:53 am 05:53 Clear 34 1.1 30 -1.1 85 85 WNW 7 11 30.08 1019 10 16.0934 0 0
6:53 am 06:53 Clear 31 -0.6 28 -2.2 89 89 Calm 30.1 1019 7 11.26538 0 0
7:53 am 07:53 Sunny with Mist and Fog 30 -1.1 28 -2.2 92 92 Calm 30.11 1020 6 9.65604 0 0
8:53 am 08:53 Sunny with Mist and Fog 30 -1.1 28 -2.2 92 92 Calm 30.13 1020 4 6.43736 0 0
9:53 am 09:53 Sunny 38 3.3 31 -0.6 76 76 Calm 30.15 1021 8 12.87472 0 0
10:53 am 10:53 Sunny 41 5 32 0 70 70 N 7 11 30.15 1021 10 16.0934 0 0
11:53 am 11:53 Sunny 42 5.6 31 -0.6 65 65 VRB 3 6 30.14 1021 10 16.0934 0 0
12:53 pm 12:53 Partly Cloudy 44 6.7 32 0 63 63 undefined N/A 30.13 1020 10 16.0934 0 0
1:53 pm 13:53 Partly Cloudy 46 7.8 30 -1.1 54 54 NNW 10 17 30.12 1020 10 16.0934 0 0
2:53 pm 14:53 Partly Cloudy 46 7.8 30 -1.1 54 54 N 12 19 30.11 1020 10 16.0934 0 0
3:53 pm 15:53 Sunny 45 7.2 28 -2.2 52 52 NW 3 6 30.11 1020 10 16.0934 0 0
4:53 pm 16:53 Sunny 41 5 29 -1.7 62 62 N 8 13 30.12 1020 10 16.0934 0 0
5:53 pm 17:53 Mostly Clear 38 3.3 28 -2.2 68 68 NNE 8 13 30.12 1020 10 16.0934 0 0
6:53 pm 18:53 Clear 36 2.2 28 -2.2 73 73 N 7 11 30.13 1020 10 16.0934 0 0
7:53 pm 19:53 Clear 33 0.6 27 -2.8 78 78 Calm 30.14 1021 10 16.0934 0 0
8:53 pm 20:53 Clear 31 -0.6 26 -3.3 82 82 Calm 30.15 1021 10 16.0934 0 0
9:53 pm 21:53 Clear 28 -2.2 25 -3.9 88 88 Calm 30.15 1021 10 16.0934 0 0
10:53 pm 22:53 Clear 27 -2.8 24 -4.4 89 89 Calm 30.14 1021 8 12.87472 0 0
11:53 pm 23:53 Clear 27 -2.8 24 -4.4 89 89 Calm 30.15 1021 8 12.87472 0 0

Powered by AerisWeather